Regional Weather Roundup
Issued by NWS

Home | Current Version | Previous Version | Graphics & Text | Print | Product List | Glossary On
Versions: 1 2 3 4 5 6 7 8 9 10 11 12 13 14 15 16 17 18 19 20 21 22 23 24 25 26 27
000
ASUS45 KBOU 190606
RWRCO

WEATHER ROUNDUP FOR COLORADO
NATIONAL WEATHER SERVICE DENVER/BOULDER CO
1200 AM MDT SAT APR 19 2014

NOTE: "FAIR" INDICATES FEW OR NO CLOUDS BELOW 12000 FEET WITH NO
SIGNIFICANT WEATHER AND/OR OBSTRUCTIONS TO VISIBILITY.

COZ001>005-013-030-031-190700-
...NORTHWEST COLORADO...

CITY           SKY/WX    TMP DP  RH WIND       PRES   REMARKS
CRAIG          MOCLDY    45  34  65 CALM      30.02R
HAYDEN         PTCLDY    48  30  49 W6        30.05R
MEEKER         CLOUDY    59  23  25 SW3       30.03R
MOUNT WERNER   MOCLDY    43  12  28 SW15G22   30.21R
STEAMBOAT SPGS PTCLDY    48  21  34 E3        30.02S
WALDEN         MOCLDY    36  23  60 CALM      30.08R
$$

COZ006>008-011-190700-
...WEST CENTRAL VALLEYS...

CITY           SKY/WX    TMP DP  RH WIND       PRES   REMARKS
GRAND JUNCTION CLOUDY    61  29  29 NW9       29.99R
MONTROSE       CLOUDY    60  29  30 SE13      30.05R
EAGLE          MOCLDY    55  30  38 SW12      30.09R
RIFLE          CLOUDY    59  31  34 S14       30.01R
DELTA          CLOUDY    65  31  27 SE8       30.01R
NUCLA            N/A     55  28  35 CALM      30.11R
$$

COZ017>023-064>068-190700-
...SOUTHWEST COLORADO...

CITY           SKY/WX    TMP DP  RH WIND       PRES   REMARKS
DURANGO        CLOUDY    52  27  38 SW10      30.11R
CORTEZ         CLOUDY    53  33  46 CALM      30.10R
PAGOSA SPRINGS CLOUDY    55  27  34 SW6       30.14F
TELLURIDE      NOT AVBL
WOLF CREEK PAS NOT AVBL
$$

COZ009-010-012-014-032>034-037-058>063-190700-
...CENTRAL COLORADO...

CITY           SKY/WX    TMP DP  RH WIND       PRES   REMARKS
ASPEN          CLOUDY    46  28  49 VRB3      30.12S
BUENA VISTA    CLEAR     43  28  55 NE5       30.12R
COPPER MTN     CLEAR     36  19  51 SW17      30.28F
BERTHOUD PASS  FAIR      30  21  69 W23       30.28F WCI  17
COTTONWOOD PAS CLEAR     46  19  34 W8G17     30.20R
GUNNISON       PTCLDY    46  25  42 NE3       30.16R
KREMMLING      PTCLDY    45  27  49 S7        30.08R
LEADVILLE      PTCLDY    33  21  61 NE7       30.19F WCI  27
MONARCH PASS   PTCLDY    32  23  69 W18       30.39F WCI  20
SALIDA         CLEAR     49  25  40 CALM      30.17S
SUNLIGHT       CLOUDY    36  32  87 CALM      30.27R
WILKERSON PASS CLEAR     36  21  55 SW8       30.27F
$$

COZ069>075-190700-
...SAN LUIS VALLEY/SANGRE DE CRISTO MOUNTAINS...

CITY           SKY/WX    TMP DP  RH WIND       PRES   REMARKS
ALAMOSA        MOCLDY    46  32  58 S5        30.12S
LA VETA PASS   MOCLDY    39  25  56 SW9G25    30.20R
SAGUACHE       CLOUDY    50  25  37 NW8       30.12S
$$

COZ035-036-038>040-190700-
...NORTHERN COLORADO FRONT RANGE...

CITY           SKY/WX    TMP DP  RH WIND       PRES   REMARKS
DENVER INTL AP PTCLDY    56  31  38 S10       29.90S
DMNS CITY PARK   N/A     62  28  28 S3        29.91R
AURORA         MOCLDY    54  32  43 S8        29.93S
FRONT RANGE AP NOT AVBL
ERIE MUNI ARPT PTCLDY    51  33  50 SW7       29.89S
BOULDER MUN AP PTCLDY    59  30  33 CALM      29.89S
CENTENNIAL     PTCLDY    54  29  38 S3        29.93S
BROOMFIELD     PTCLDY    59  27  29 W7        29.92S
FORT COLLINS   MOCLDY    55  34  44 CALM      29.89S
LONGMONT       MOCLDY    55  32  41 SW7       29.90R
$$

COZ041-046-047-076>085-087-088-190700-
...PIKES PEAK/PALMER DIVIDE AND SOUTHERN FOOTHILLS...

CITY           SKY/WX    TMP DP  RH WIND       PRES   REMARKS
COLO. SPRINGS  PTCLDY    52  29  41 E6        29.98R
A. F. ACADEMY  PTCLDY    49  30  48 N6        30.00R
ELLICOTT       NOT AVBL
FALCON         PTCLDY    51  26  39 NW6       30.01F
FORT CARSON    PTCLDY    57  29  34 N2        29.95R
LIMON          PTCLDY    41  33  73 CALM      29.93S
MONUMENT HILL  PTCLDY    50  27  40 SW10      30.01S
TRINIDAD       MOCLDY    57  36  45 W13       29.99S
$$

COZ042>045-048>051-090-091-190700-
...NORTHEAST COLORADO...

CITY           SKY/WX    TMP DP  RH WIND       PRES   REMARKS
GREELEY ARPT   PTCLDY    52  34  50 CALM      29.87R
AKRON          MOCLDY    54  40  59 S15G23    29.86F
BURLINGTON     PTCLDY    54  42  64 S21       29.90F
WRAY           MOCLDY    59  44  57 S16G24    29.86F
STERLING       MOCLDY    61  43  51 S10       29.83F
HOLYOKE        MOCLDY    59  43  55 S6        29.88S
FORT MORGAN    MOCLDY    51  34  51 E3        29.85S
$$

COZ086-089-092>099-190700-
...SOUTHEAST COLORADO...

CITY           SKY/WX    TMP DP  RH WIND       PRES   REMARKS
PUEBLO         MOCLDY    58  37  45 NW13      29.89R
LA JUNTA       MOCLDY    65  37  35 SW21      29.87S
LAMAR          MOCLDY    62  38  40 S18       29.85F
SPRINGFIELD      N/A     56  40  55 S17       29.98S
$$



USA.gov is the U.S. government's official web portal to all federal, state and local government web resources and services.